This is the latest recevied weather packets stored in our database for station/object WX7FGZ-6. If no packets are shown the sender has not sent any weather packets the latest 10 day(s).
| Time | Temp. | Humidity | Pressure | Rain* | Wind** | Luminosity | Snow |
|---|---|---|---|---|---|---|---|
| 1777406181 | 5.56° C | 32% | 1022.8 hPa | 0 mm | - | - | - |
| 1777404978 | 4.44° C | 29% | 1022.4 hPa | 0 mm | - | - | - |
| 1777404580 | 5° C | 28% | 1022.2 hPa | 0 mm | - | - | - |
| 1777404269 | 4.44° C | 27% | 1021.6 hPa | 0 mm | - | - | - |
| 1777403969 | 4.44° C | 29% | 1021.5 hPa | 0 mm | - | - | - |
| 1777403669 | 3.89° C | 36% | 1021.4 hPa | 0 mm | - | - | - |
| 1777403369 | 3.89° C | 32% | 1021.5 hPa | 0 mm | - | - | - |
| 1777403069 | 3.89° C | 36% | 1021.2 hPa | 0 mm | - | - | - |
| 1777400991 | 2.78° C | 31% | 1021.4 hPa | 0 mm | - | - | - |
| 1777399293 | 1.67° C | 33% | 1021.8 hPa | 0 mm | - | - | - |
| 1777398693 | 1.11° C | 35% | 1021.6 hPa | 0 mm | - | - | - |
| 1777398393 | 1.11° C | 32% | 1021.2 hPa | 0 mm | - | - | - |
| 1777397793 | 1.11° C | 30% | 1020.6 hPa | 0 mm | - | - | - |
| 1777397493 | 0.56° C | 32% | 1020.5 hPa | 0 mm | - | - | - |
| 1777395667 | 0° C | 27% | 1020.2 hPa | 0 mm | - | - | - |
| 1777393602 | -0.56° C | 29% | 1019.6 hPa | 0 mm | - | - | - |
| 1777390646 | -1.67° C | 24% | 1021.9 hPa | 0 mm | - | - | - |
| 1777390600 | -1.67° C | 24% | 1021.9 hPa | 0 mm | - | - | - |
| 1777390000 | -1.67° C | 19% | 1021.9 hPa | 0 mm | - | - | - |
| 1777389700 | -1.67° C | 23% | 1021.9 hPa | 0 mm | - | - | - |
| 1777388801 | -1.67° C | 18% | 1021.1 hPa | 0 mm | - | - | - |
| 1777388108 | -2.22° C | 18% | 1019.9 hPa | 0 mm | - | - | - |
| 1777387808 | -2.78° C | 16% | 1019.2 hPa | 0 mm | - | - | - |
| 1777386907 | -3.33° C | 19% | 1018.1 hPa | 0 mm | - | - | - |
| 1777386608 | -3.89° C | 17% | 1018 hPa | 0 mm | - | - | - |
* Rain latest hour (hover to see other rain measurements)
** Current wind speed in m/s (hover to see current wind gust speed)